• In Italy
  • List of Countries
  • For 7 days
  • Water Temperature
  • Satellite Maps
  • Weather Map
  • Weather Widgets
  • user-avatar
    Login

    Hourly Weather Szombathely

    Today, 12 December, Tuesday

    Time Temperature Precipitation Wind Pressure Humidity
    00:00 +10°C° 0 mm 8 mps 729 mmHg 78%
    01:00 +10°C° 0 mm 7 mps 729 mmHg 79%
    02:00 +10°C° 0 mm 8 mps 730 mmHg 78%
    03:00 +10°C° 0 mm 8 mps 730 mmHg 77%
    04:00 +10°C° 0 mm 9 mps 730 mmHg 76%
    05:00 +10°C° 0 mm 8 mps 731 mmHg 76%
    06:00 +10°C° 0 mm 7 mps 732 mmHg 76%
    07:00 +11°C° 0 mm 6 mps 733 mmHg 77%
    08:00 +10°C° 0.8 mm 6 mps 734 mmHg 78%
    09:00 +10°C° 0.8 mm 5 mps 734 mmHg 80%
    10:00 +10°C° 0.8 mm 4 mps 735 mmHg 82%
    11:00 +10°C° 0.3 mm 4 mps 736 mmHg 81%
    12:00 +10°C° 0.3 mm 4 mps 736 mmHg 81%
    13:00 +9°C° 0 mm 2 mps 737 mmHg 87%
    14:00 +8°C° 0.5 mm 2 mps 738 mmHg 87%
    15:00 +8°C° 0.5 mm 2 mps 738 mmHg 86%
    16:00 +7°C° 0.5 mm 2 mps 739 mmHg 86%
    17:00 +7°C° 0.5 mm 3 mps 739 mmHg 85%
    18:00 +5°C° 0.5 mm 4 mps 740 mmHg 84%
    19:00 +5°C° 0.5 mm 4 mps 741 mmHg 83%
    20:00 +3°C° 0.9 mm 5 mps 741 mmHg 82%
    21:00 +3°C° 0.9 mm 5 mps 742 mmHg 80%
    22:00 +2°C° 0.9 mm 6 mps 742 mmHg 78%
    23:00 +2°C° 0.9 mm 5 mps 743 mmHg 79%

    Tomorrow, 13 December, Wednesday

    Time Temperature Precipitation Wind Pressure Humidity
    00:00 +2°C° 0.9 mm 5 mps 743 mmHg 80%
    01:00 +1°C° 0.9 mm 5 mps 744 mmHg 81%
    02:00 +1°C° 0.4 mm 4 mps 744 mmHg 82%
    03:00 +1°C° 0.4 mm 4 mps 745 mmHg 83%
    04:00 +2°C° 0.4 mm 3 mps 745 mmHg 83%
    05:00 +2°C° 0 mm 3 mps 745 mmHg 83%
    06:00 +2°C° 0 mm 3 mps 745 mmHg 83%
    07:00 +2°C° 0 mm 2 mps 745 mmHg 83%
    08:00 +3°C° 0 mm 2 mps 746 mmHg 82%
    09:00 +3°C° 0 mm 2 mps 746 mmHg 80%
    10:00 +3°C° 0 mm 2 mps 746 mmHg 78%
    11:00 +4°C° 0 mm 2 mps 746 mmHg 76%
    12:00 +4°C° 0 mm 2 mps 745 mmHg 73%
    13:00 +6°C° 0 mm 1 mps 745 mmHg 71%
    14:00 +4°C° 0 mm 2 mps 744 mmHg 75%
    15:00 +3°C° 0 mm 2 mps 744 mmHg 79%
    16:00 +3°C° 0 mm 2 mps 744 mmHg 83%
    17:00 +2°C° 0 mm 2 mps 743 mmHg 84%
    18:00 +2°C° 0 mm 2 mps 743 mmHg 85%
    19:00 0°C° 0 mm 3 mps 742 mmHg 87%
    20:00 0°C° 0 mm 3 mps 741 mmHg 87%
    21:00 0°C° 0 mm 3 mps 741 mmHg 87%
    22:00 -1°C° 0 mm 4 mps 740 mmHg 87%
    23:00 -1°C° 0 mm 4 mps 739 mmHg 88%

    Day after tomorrow, 14 December, Thursday

    Time Temperature Precipitation Wind Pressure Humidity
    00:00 -1°C° 0 mm 4 mps 738 mmHg 89%
    01:00 -1°C° 0 mm 5 mps 737 mmHg 90%
    02:00 -1°C° 0 mm 5 mps 737 mmHg 89%
    03:00 0°C° 0 mm 5 mps 736 mmHg 88%
    04:00 -1°C° 0 mm 6 mps 735 mmHg 88%
    05:00 0°C° 0 mm 5 mps 735 mmHg 86%
    06:00 0°C° 0 mm 5 mps 735 mmHg 84%
    07:00 +1°C° 0 mm 5 mps 735 mmHg 82%
    08:00 +1°C° 0 mm 4 mps 735 mmHg 80%
    09:00 +3°C° 0 mm 3 mps 735 mmHg 79%
    10:00 +5°C° 0 mm 2 mps 736 mmHg 77%
    11:00 +5°C° 0 mm 2 mps 736 mmHg 76%
    12:00 +6°C° 0 mm 2 mps 736 mmHg 74%
    13:00 +7°C° 0 mm 2 mps 736 mmHg 72%
    14:00 +6°C° 0 mm 2 mps 736 mmHg 75%
    15:00 +5°C° 0 mm 2 mps 737 mmHg 78%
    16:00 +6°C° 0 mm 1 mps 737 mmHg 81%
    17:00 +5°C° 0 mm 2 mps 737 mmHg 82%
    18:00 +3°C° 0 mm 3 mps 737 mmHg 83%
    19:00 +3°C° 0 mm 3 mps 737 mmHg 84%
    20:00 +3°C° 0.1 mm 4 mps 736 mmHg 85%
    21:00 +2°C° 0.1 mm 5 mps 735 mmHg 85%
    22:00 +2°C° 0.1 mm 5 mps 735 mmHg 86%
    23:00 +2°C° 0.1 mm 5 mps 734 mmHg 88%

    15 December, Friday

    Time Temperature Precipitation Wind Pressure Humidity
    00:00 +2°C° 0.1 mm 5 mps 733 mmHg 90%
    01:00 +3°C° 0.1 mm 5 mps 732 mmHg 92%
    02:00 +3°C° 0 mm 5 mps 731 mmHg 91%
    03:00 +3°C° 0 mm 5 mps 730 mmHg 90%
    04:00 +5°C° 0 mm 5 mps 729 mmHg 89%
    05:00 +5°C° 0.1 mm 4 mps 729 mmHg 88%
    06:00 +5°C° 0.1 mm 4 mps 730 mmHg 87%
    07:00 +5°C° 0.1 mm 3 mps 730 mmHg 86%
    08:00 +4°C° 1.3 mm 3 mps 730 mmHg 84%
    09:00 +4°C° 1.3 mm 3 mps 730 mmHg 81%
    10:00 +4°C° 1.3 mm 2 mps 731 mmHg 79%
    11:00 +4°C° 0.5 mm 2 mps 731 mmHg 79%
    12:00 +4°C° 0.5 mm 2 mps 732 mmHg 79%
    13:00 +4°C° 0.5 mm 2 mps 733 mmHg 79%
    14:00 +5°C° 0.4 mm 1 mps 733 mmHg 80%
    15:00 +4°C° 0.4 mm 1 mps 733 mmHg 82%
    16:00 +4°C° 0.4 mm 1 mps 733 mmHg 83%
    17:00 +4°C° 0.4 mm 1 mps 733 mmHg 84%
    18:00 +4°C° 0.4 mm 1 mps 733 mmHg 86%
    19:00 +3°C° 0.4 mm 1 mps 734 mmHg 88%
    20:00 +3°C° 0.2 mm 1 mps 734 mmHg 88%
    21:00 +2°C° 0.2 mm 2 mps 734 mmHg 89%
    22:00 +2°C° 0.2 mm 2 mps 734 mmHg 90%
    23:00 +2°C° 0.1 mm 2 mps 734 mmHg 90%

    16 December, Saturday

    Time Temperature Precipitation Wind Pressure Humidity
    00:00 +2°C° 0.1 mm 2 mps 735 mmHg 90%
    01:00 +2°C° 0.1 mm 2 mps 735 mmHg 89%
    02:00 +1°C° 0 mm 2 mps 735 mmHg 89%
    03:00 +1°C° 0 mm 2 mps 735 mmHg 89%
    04:00 +1°C° 0 mm 2 mps 735 mmHg 89%
    05:00 +1°C° 0 mm 2 mps 736 mmHg 88%
    06:00 +1°C° 0 mm 2 mps 736 mmHg 87%
    07:00 +1°C° 0 mm 2 mps 737 mmHg 87%
    08:00 +1°C° 0 mm 2 mps 738 mmHg 85%
    09:00 +2°C° 0 mm 2 mps 738 mmHg 83%
    10:00 +3°C° 0 mm 2 mps 739 mmHg 81%
    11:00 +4°C° 0 mm 1 mps 739 mmHg 77%
    12:00 +5°C° 0 mm 1 mps 739 mmHg 73%
    13:00 +6°C° 0 mm 1 mps 740 mmHg 69%
    14:00 +5°C° 0 mm 1 mps 740 mmHg 73%
    15:00 +4°C° 0 mm 1 mps 740 mmHg 77%
    16:00 +3°C° 0 mm 1 mps 740 mmHg 81%
    17:00 +2°C° 0 mm 1 mps 741 mmHg 82%
    18:00 +2°C° 0 mm 1 mps 742 mmHg 83%
    19:00 +1°C° 0 mm 1 mps 742 mmHg 84%
    20:00 +1°C° 0 mm 1 mps 743 mmHg 85%
    21:00 +1°C° 0 mm 1 mps 743 mmHg 85%
    22:00 +1°C° 0 mm 1 mps 743 mmHg 86%
    23:00 +1°C° 0 mm 1 mps 744 mmHg 86%

    17 December, Sunday

    Time Temperature Precipitation Wind Pressure Humidity
    00:00 +1°C° 0 mm 1 mps 744 mmHg 86%
    01:00 +1°C° 0 mm 1 mps 744 mmHg 86%
    02:00 +1°C° 0 mm 1 mps 744 mmHg 85%
    03:00 +1°C° 0 mm 1 mps 744 mmHg 84%
    04:00 +1°C° 0 mm 1 mps 744 mmHg 83%
    05:00 +1°C° 0 mm 1 mps 745 mmHg 83%
    06:00 +1°C° 0 mm 1 mps 745 mmHg 82%
    07:00 0°C° 0 mm 1 mps 746 mmHg 82%
    08:00 +1°C° 0 mm 1 mps 746 mmHg 79%
    09:00 +1°C° 0 mm 2 mps 746 mmHg 76%
    10:00 +2°C° 0 mm 2 mps 747 mmHg 73%
    11:00 +3°C° 0 mm 2 mps 747 mmHg 70%
    12:00 +3°C° 0 mm 2 mps 747 mmHg 67%
    13:00 +4°C° 0 mm 2 mps 747 mmHg 65%
    14:00 +3°C° 0 mm 2 mps 747 mmHg 69%
    15:00 +2°C° 0 mm 2 mps 748 mmHg 73%
    16:00 +2°C° 0 mm 1 mps 748 mmHg 78%
    17:00 +1°C° 0 mm 2 mps 748 mmHg 79%
    18:00 -1°C° 0 mm 2 mps 749 mmHg 80%
    19:00 -1°C° 0 mm 2 mps 749 mmHg 82%
    20:00 -1°C° 0 mm 2 mps 750 mmHg 82%
    21:00 -2°C° 0 mm 2 mps 750 mmHg 83%
    22:00 -2°C° 0 mm 2 mps 751 mmHg 83%
    23:00 -2°C° 0 mm 2 mps 751 mmHg 83%
    Show more